User: anonymous   Login
Location: Allaines
(49.9632°N, 2.9458°E)
Time: 18:02:03
(UTC+00:00)
Language:

Cosmos 1833 Rocket - Orbit

View from above orbital plane
View from above orbital plane
View from above satellite
View from above satellite

Ground track
Ground track

The orbit data is extracted from the following two-line orbital elements,

1 17590U 87027B   20184.86842604  .00000212  00000-0  12961-3 0  9996
2 17590  71.0035 328.9428 0003778  25.2350 334.8957 14.16785627721576
Epoch (UTC): 02 July 2020 20:50:32
Eccentricity: 0.0003778
inclination: 71.0035°
perigee height: 833 km
apogee height: 839 km
right ascension of ascending node: 328.9428°
argument of perigee: 25.2350°
revolutions per day: 14.16785627
mean anomaly at epoch: 334.8957°
orbit number at epoch: 72157

The dashed part of the orbit path shows where the satellite is in the earth's shadow,  

DLR